BV3BA-13 Weather Reports


Display with metric or nautical units.
time (UTC)temp
F
wind
direction
speed
MPH
gust
MPH
rain 1hr
in
rain 24hr
in
rain mn
in
humidity
%
barometer
mb
20260504081704 73 50 9.0 28.0 0.00 0.02 0.02 65 1010.8
20260504080703 73 50 9.0 26.0 0.00 0.02 0.02 64 1010.6
20260504050704 78 50 10.0 33.0 0.00 0.02 0.02 50 1011.7
20260504045704 77 40 13.0 33.0 0.00 0.02 0.02 49 1012.0
20260504044704 78 50 9.0 33.0 0.00 0.02 0.02 51 1011.8
20260504043704 77 50 9.0 33.0 0.00 0.02 0.02 53 1012.0
20260504042704 77 60 9.0 33.0 0.00 0.02 0.02 52 1012.1
20260504041703 77 40 11.0 33.0 0.00 0.02 0.02 56 1012.4
20260504040703 76 40 12.0 26.0 0.00 0.02 0.02 53 1012.3
20260504035703 76 50 10.0 26.0 0.00 0.02 0.02 54 1012.7
20260504034704 76 40 11.0 26.0 0.00 0.02 0.02 55 1013.0
20260504033703 75 40 9.0 26.0 0.00 0.02 0.02 57 1012.7
20260504032704 74 40 10.0 26.0 0.00 0.02 0.02 54 1012.9
20260504031704 74 40 10.0 26.0 0.00 0.02 0.02 54 1012.8
20260504030703 73 50 9.0 21.0 0.00 0.02 0.02 56 1013.2
20260504025703 74 40 9.0 21.0 0.00 0.02 0.02 54 1013.2
20260504024703 74 50 11.0 21.0 0.00 0.02 0.02 54 1013.1
20260504023704 74 50 6.0 21.0 0.00 0.02 0.02 53 1013.3
20260504022704 74 60 9.0 21.0 0.00 0.02 0.02 57 1013.3
20260504021703 73 70 6.0 21.0 0.00 0.02 0.02 60 1013.6
20260504020704 71 60 7.0 28.0 0.00 0.02 0.02 67 1013.7
20260504015703 71 60 9.0 28.0 0.00 0.02 0.02 67 1013.7
20260504014703 70 60 6.0 28.0 0.00 0.02 0.02 68 1014.0
20260504013704 70 60 6.0 28.0 0.00 0.02 0.02 70 1014.0
20260504012704 70 60 8.0 28.0 0.00 0.02 0.02 72 1013.8
20260504011703 70 50 7.0 28.0 0.00 0.02 0.02 73 1014.4
20260504010704 70 40 4.0 26.0 0.00 0.02 0.02 76 1014.1
20260504005704 70 30 7.0 26.0 0.00 0.02 0.02 75 1013.7
20260504004704 70 30 9.0 26.0 0.00 0.02 0.02 74 1013.5
20260504003704 70 40 11.0 26.0 0.00 0.02 0.02 74 1013.3
20260504002703 70 40 9.0 26.0 0.00 0.02 0.02 73 1013.1
20260504001703 70 50 8.0 26.0 0.00 0.02 0.02 75 1013.6
20260504000703 70 40 9.0 19.0 0.00 0.02 0.02 76 1013.3
20260503235704 70 40 8.0 19.0 0.00 0.02 0.02 74 1013.6
20260503234703 70 40 7.0 19.0 0.00 0.02 0.02 75 1013.5
20260503233704 70 40 6.0 19.0 0.00 0.02 0.02 75 1013.3
20260503232704 70 50 6.0 19.0 0.00 0.02 0.02 75 1013.1
20260503231703 70 70 6.0 19.0 0.00 0.02 0.02 75 1012.9
20260503230703 69 50 6.0 13.0 0.00 0.02 0.02 77 1012.9
20260503225704 69 50 7.0 13.0 0.00 0.02 0.02 78 1012.5
20260503224703 69 40 6.0 13.0 0.02 0.02 0.02 79 1012.4
20260503223703 69 40 5.0 13.0 0.02 0.02 0.02 81 1012.6
20260503222703 69 30 6.0 13.0 0.02 0.02 0.02 85 1012.6
20260503221704 70 30 4.0 13.0 0.02 0.02 0.02 80 1012.7
20260503220711 69 30 3.0 17.0 0.02 0.02 0.02 82 1012.6
20260503215703 70 60 6.0 17.0 0.02 0.02 0.02 80 1012.1
20260503214703 69 40 5.0 17.0 0.00 0.00 0.00 80 1012.1
20260503213704 70 70 4.0 17.0 0.00 0.00 0.00 79 1012.0
20260503212704 70 70 3.0 17.0 0.00 0.00 0.00 78 1011.9
20260503211703 71 60 6.0 17.0 0.00 0.00 0.00 74 1011.9
20260503210704 72 50 5.0 15.0 0.00 0.00 0.00 69 1011.9
20260503205704 72 80 6.0 15.0 0.00 0.00 0.00 70 1011.5
20260503204703 72 70 7.0 15.0 0.00 0.00 0.00 70 1011.6
20260503203703 72 70 7.0 15.0 0.00 0.00 0.00 71 1011.3
20260503202703 72 70 8.0 15.0 0.00 0.00 0.00 72 1011.3
20260503201704 72 70 7.0 15.0 0.00 0.00 0.00 73 1011.3
20260503200703 72 60 4.0 15.0 0.00 0.00 0.00 74 1011.1
20260503195703 72 70 5.0 15.0 0.00 0.00 0.00 75 1010.9
20260503194703 72 80 6.0 15.0 0.00 0.00 0.00 73 1010.7
20260503193703 72 70 6.0 15.0 0.00 0.00 0.00 72 1010.7
20260503192703 72 90 4.0 15.0 0.00 0.00 0.00 72 1010.5
20260503191703 72 70 3.0 15.0 0.00 0.00 0.00 77 1010.7
20260503190703 72 90 4.0 17.0 0.00 0.00 0.00 78 1010.6
20260503185703 72 90 4.0 17.0 0.00 0.00 0.00 79 1010.7
20260503184704 72 70 6.0 17.0 0.00 0.00 0.00 79 1010.6
20260503183703 72 70 4.0 17.0 0.00 0.00 0.00 78 1010.4
20260503182704 73 30 4.0 17.0 0.00 0.00 0.00 77 1010.6
20260503181703 73 40 6.0 17.0 0.00 0.00 0.00 78 1010.5
20260503180703 73 60 7.0 15.0 0.00 0.00 0.00 77 1010.6
20260503175704 73 60 5.0 15.0 0.00 0.00 0.00 78 1010.5
20260503174703 73 50 7.0 15.0 0.00 0.00 0.00 78 1010.4
20260503173703 74 50 5.0 15.0 0.00 0.00 0.00 78 1010.3
20260503172707 74 40 6.0 15.0 0.00 0.00 0.00 76 1010.5
20260503171704 74 20 6.0 15.0 0.00 0.00 0.00 76 1010.3
20260503170704 74 30 5.0 16.0 0.00 0.00 0.00 77 1010.1
20260503150703 77 40 4.0 9.0 0.00 0.00 0.00 85 1009.8
20260503130704 78 340 2.0 12.0 0.00 0.00 0.00 89 1008.5
20260503110704 79 310 4.0 16.0 0.00 0.00 0.00 90 1007.4